Погода в Санта-Марии

Кабо-Верде     16°35′42″N   22°54′58″W
темп.,
°C
ветер,
м/с
пор.,
м/с
влажн.,
%
обл.,
%
осадки,
мм/ч
давл.,
гПа
погр.,
м
28 ноября, вс
вс2823:00+24св10117881 0.0 1016842
02:00+24св111277100 0.0 1015951
05:00+23св111176100 0.0 1015978
08:00+23св111171100 0.0 1017969
11:00+24св111271100 0.0 1017930
14:00+24св121272100 0.0 1015995
17:00+24св12127286 0.0 10151049
20:00+23св11127193 0.0 1017945
29 ноября, пн
пн2923:00+23св111170100 0.0 1018968
02:00+23св101070100 0.0 1016974
05:00+23св111168100 0.0 10151048
08:00+24св111168100 0.0 10171058
11:00+24св111269100 0.0 10171122
14:00+24св111168100 0.0 10151140
17:00+24св111169100 0.0 10141143
20:00+24св111169100 0.0 10161188
30 ноября, вт
вт3023:00+23св101069100 0.0 10161229
02:00+23св10970100 0.0 10151225
05:00+23св101069100 0.0 10151158
08:00+23св10106998 0.0 10161202
11:00+23св1010694 0.0 10161099
14:00+23св9969100 0.0 10141140
17:00+23св996964 0.0 10141146
20:00+23св9969100 0.0 10161142
1 декабря, ср
ср123:00+23св8870100 0.0 10161062
02:00+23св8870100 0.0 1014986
05:00+23св8869100 0.0 1013994
08:00+23св9967100 0.0 1015929
11:00+24св8867100 0.0 1016971
14:00+24св7867100 0.0 1014912
17:00+24св8869100 0.0 1014860
20:00+24св9969100 0.0 1015859
2 декабря, чт
чт223:00+24св9969100 0.0 1015896
02:00+24св9970100 0.0 1013783
05:00+24св9970100 0.0 1013836
08:00+24св101070100 0.0 1015820
11:00+24св9969100 0.0 1015801
14:00+24св8869100 0.0 1013844
17:00+24св9970100 0.0 1013827
20:00+24св99705 0.0 1014825